O3b星座 FM5星 (O3B FM5)

导读

O3B FM5卫星是O3B第一代中地球轨道卫星星座的第五颗卫星,于2013年6月25日发射。卫星运行在轨道高度8062公里的赤道圆轨道,主要提供低延迟、高带宽的宽带通信服务,覆盖全球南北纬45°区域,能够为偏远地区的电信运营商、企业用户提供网络连接服务,该卫星目前仍在正常工作,持续助力全球互联覆盖。

基本信息
目录编号:
39188
目录名称:
O3B FM5
国际标识:
2013-031A
轨道中心:
EARTH
卫星名称:
O3b星座 FM5星
卫星全名:
O3b星座 FM5星 (O3B FM5)
卫星状态:
在轨 (已飞行4735 天)
发射日期:
2013-06-25 UTC
国别 :
(O3B)
星等 :
--
轨道信息
数据来源 国际轨道数据 AOE轨道数据
星历时间 2026-06-12T09:01:32+0800
17小时前
查看轨道信息
2026-06-10T02:00:00+0800
3天前
查看轨道信息
半长轴 14444.008km 14443.997km
偏心率 0.0002969 0.0002997
轨道倾角 0.099° 0.099°
近地点辐角 81.848° 80.013°
升交点赤经 345.875° 346.590°
平近点角 292.311° 124.255°
近地点 8061.582km 8061.531km
远地点 8070.16km 8070.189km
周期 287.933分钟 287.933分钟
每日圈数 5.001165 5.001171
详细信息
平衡模式:
三轴稳定
覆盖范围:
全球
运营商:
欧洲卫星公司
运营商所在国:
卢森堡
制造商(研发单位):
阿莱尼亚宇航公司
制造商所在国:
意大利
使用方式:
暂无
卫星简介
O3b卫星星座分为O3b FM卫星星座和O3b mPOWER卫星星座,前者是由阿莱尼亚宇航公司制造的第一代O3b卫星星座,后者是由波音公司制造的第二代O3b卫星星座。O3b卫星初始星座运行于赤道圆轨道,轨道高度8062公里,能够覆盖全球南北纬45°之间所有地方,在南、北纬45°~62°范围内也能提供一定的服务。该卫星仍在工作。
2D轨道图
3D轨道图
轨道高度分析图
轨道倾角分析图
轨道综合分析图
查看轨道综合分析图